Temp
36 36 36 36 35 35 35 34 35 34 34 34 34 34 34 34 34 34 34 34 34 34 34 34 35 34 34 35 34 34 35 34 34 35 33 34 34 33 33 34 34 34
35 35 35 35 34 34 34 34 33 33 33 33 33 33 33 33 32 32 32 32 33 32 33 33 33 33 33 33 33 33 33 33 32 34 32 33 33 33 33 33 33 34
34 34 34 33 33 32 32 32 32 32 32 32 32 32 32 32 31 31 31 31 31 31 31 31 31 31 31 31 31 32 31 31 31 32 32 32 32 32 33 33 33 33
32 32 32 32 32 32 32 32 31 31 32 31 31 31 31 30 31 30 30 30 30 30 30 30 30 30 30 30 30 30 30 30 31 31 31 31 31 32 31 32 32 32
32 32 32 32 31 32 32 31 30 30 30 30 30 30 30 30 29 29 29 29 29 29 29 29 30 29 30 29 30 30 30 30 30 30 30 30 31 31 31 31 31 30
31 31 31 31 31 31 31 30 29 29 29 29 29 29 29 29 29 28 28 28 28 28 28 28 28 29 29 29 29 29 29 29 30 29 29 29 29 30 30 30 30 29
30 30 30 30 30 30 30 29 29 29 29 29 29 28 28 28 28 28 28 27 27 27 27 27 27 27 28 28 28 28 28 28 28 28 27 28 29 28 30 29 29 28
29 29 30 30 30 29 29 29 28 28 28 28 27 27 27 27 27 27 27 27 26 26 26 26 26 26 27 27 26 26 26 27 27 27 27 27 27 27 28 28 28 28
29 29 29 29 29 28 28 27 27 27 27 26 26 26 27 26 26 26 25 25 25 25 25 25 25 25 25 25 25 25 25 25 26 25 25 25 25 26 26 27 27 27
29 28 28 28 27 27 26 26 26 26 26 25 25 25 24 25 25 24 24 24 23 24 24 24 23 23 23 24 24 24 24 24 24 24 24 24 24 24 25 25 25 25
28 28 27 26 26 26 25 25 24 24 24 23 23 23 23 23 23 23 22 22 22 22 22 22 22 22 22 22 23 23 23 23 23 23 23 24 24 24 24 24 23 23
27 27 26 25 25 24 24 23 23 22 22 22 21 21 21 21 21 21 21 20 21 21 21 20 21 21 21 21 22 22 22 22 23 23 23 23 23 23 23 23 23 23
26 26 25 25 24 23 23 22 21 20 19 19 19 19 18 18 18 18 19 18 19 19 19 19 19 19 20 20 20 21 21 21 21 22 22 22 22 23 23 23 23 23
25 25 24 24 23 22 21 20 19 18 17 18 17 17 16 16 16 16 17 17 17 17 17 17 17 18 18 19 19 20 21 21 21 21 21 21 22 22 22 22 23 23
25 24 23 22 21 19 18 18 17 16 16 16 15 15 15 15 15 15 15 15 15 15 15 16 16 16 17 18 19 21 21 20 20 20 20 20 21 21 22 22 22 22
23 22 21 20 19 17 16 16 15 14 14 14 13 13 13 14 13 14 14 13 13 14 14 14 15 15 16 19 21 21 21 20 20 20 20 20 20 20 20 21 21 22
20 19 18 17 16 15 13 13 13 12 11 11 11 11 11 11 12 12 12 12 12 12 12 13 13 14 16 20 21 22 21 21 20 20 20 20 20 19 19 19 20 20
18 17 15 14 13 12 11 10 10 9 9 9 9 9 10 10 10 11 11 11 11 11 11 11 12 13 17 19 20 21 22 21 20 19 19 20 20 19 18 18 17 17
16 13 12 11 11 10 9 8 7 8 7 7 7 8 9 9 10 9 9 10 10 9 9 10 10 12 16 18 20 21 22 22 20 20 19 18 18 17 17 17 16 16
13 11 11 10 9 8 8 7 7 7 7 7 7 8 8 7 7 7 8 8 8 8 8 9 9 11 16 18 20 20 21 22 20 19 18 17 17 16 16 16 17 16
13 11 10 9 8 7 7 6 6 6 7 7 6 7 6 6 5 5 5 5 6 6 6 6 8 12 16 17 19 20 21 21 19 17 17 16 17 17 17 17 17 17
10 9 8 8 8 6 5 7 6 6 5 6 5 5 5 6 5 5 4 4 5 4 4 5 7 12 14 17 19 20 21 18 17 16 16 16 16 17 17 18 18 18
11 9 7 6 6 5 4 4 6 4 4 4 3 4 5 3 3 3 4 3 3 3 3 4 4 8 14 16 18 19 19 16 16 16 16 15 16 17 18 18 19 19
10 7 6 5 4 3 3 6 5 4 3 3 3 2 2 2 2 1 2 2 2 1 2 2 4 8 13 16 17 18 19 16 16 15 15 15 16 17 18 19 19 20
8 7 6 4 4 5 2 3 3 2 2 1 1 0 1 1 1 0 -0 1 1 1 4 5 3 5 11 14 16 18 18 17 17 16 15 15 16 16 18 18 18 20
6 5 4 3 4 2 1 1 2 -1 -0 0 -0 -0 -1 -1 -0 -1 -2 -1 1 1 1 3 3 3 6 13 16 18 20 18 17 16 15 15 16 16 16 17 18 18
MSLP
1031.05 1031.09 1031.21 1031.33 1031.57 1031.69 1031.69 1031.65 1031.77 1031.81 1031.97 1032.05 1032.05 1032.21 1032.17 1032.25 1032.25 1032.17 1032.17 1032.09 1032.01 1031.97 1031.93 1031.85 1031.77 1031.69 1031.61 1031.53 1031.53 1031.41 1031.33 1031.33 1031.25 1031.13 1031.17 1031.05 1030.93 1030.85 1030.77 1030.61 1030.53 1030.41
1031.37 1031.45 1031.57 1031.69 1031.81 1031.93 1031.93 1031.85 1031.93 1031.93 1032.13 1032.25 1032.33 1032.37 1032.41 1032.45 1032.45 1032.45 1032.37 1032.33 1032.25 1032.21 1032.17 1032.09 1031.97 1031.89 1031.81 1031.65 1031.61 1031.49 1031.41 1031.29 1031.25 1031.13 1031.13 1030.97 1030.85 1030.77 1030.69 1030.61 1030.49 1030.33
1031.61 1031.69 1031.81 1031.81 1031.93 1032.05 1032.09 1032.13 1032.09 1032.17 1032.25 1032.45 1032.49 1032.45 1032.53 1032.53 1032.61 1032.53 1032.49 1032.41 1032.37 1032.29 1032.21 1032.13 1032.05 1031.93 1031.89 1031.81 1031.73 1031.57 1031.49 1031.41 1031.29 1031.17 1031.13 1030.97 1030.85 1030.77 1030.65 1030.53 1030.45 1030.37
1031.93 1032.01 1031.97 1031.97 1031.97 1032.01 1032.17 1032.21 1032.29 1032.37 1032.41 1032.45 1032.57 1032.61 1032.57 1032.57 1032.53 1032.49 1032.41 1032.33 1032.25 1032.17 1032.13 1032.05 1032.01 1031.93 1031.89 1031.85 1031.73 1031.61 1031.53 1031.41 1031.33 1031.21 1031.09 1030.93 1030.89 1030.77 1030.69 1030.49 1030.41 1030.37
1031.93 1032.01 1032.01 1032.05 1032.17 1032.25 1032.33 1032.37 1032.49 1032.53 1032.49 1032.57 1032.57 1032.53 1032.53 1032.49 1032.45 1032.41 1032.37 1032.37 1032.29 1032.29 1032.21 1032.17 1032.13 1032.05 1031.97 1031.85 1031.73 1031.57 1031.41 1031.33 1031.17 1031.09 1030.97 1030.89 1030.77 1030.69 1030.61 1030.45 1030.37 1030.29
1032.05 1032.05 1032.05 1032.13 1032.29 1032.37 1032.41 1032.45 1032.57 1032.53 1032.53 1032.49 1032.57 1032.57 1032.57 1032.57 1032.57 1032.61 1032.61 1032.61 1032.57 1032.53 1032.49 1032.37 1032.29 1032.17 1032.05 1031.93 1031.77 1031.61 1031.45 1031.29 1031.13 1031.01 1030.93 1030.81 1030.65 1030.61 1030.53 1030.41 1030.29 1030.21
1031.93 1032.01 1032.21 1032.33 1032.41 1032.41 1032.37 1032.49 1032.49 1032.49 1032.53 1032.61 1032.61 1032.69 1032.77 1032.77 1032.85 1032.85 1032.89 1032.85 1032.81 1032.69 1032.61 1032.49 1032.37 1032.25 1032.09 1031.97 1031.77 1031.65 1031.53 1031.37 1031.25 1031.09 1030.97 1030.81 1030.61 1030.53 1030.45 1030.37 1030.25 1030.13
1031.97 1032.21 1032.29 1032.37 1032.29 1032.29 1032.33 1032.45 1032.53 1032.65 1032.77 1032.81 1032.93 1033.05 1033.05 1033.05 1033.05 1033.05 1033.01 1032.97 1032.85 1032.77 1032.69 1032.57 1032.45 1032.33 1032.17 1032.01 1031.85 1031.73 1031.61 1031.45 1031.33 1031.21 1031.05 1030.93 1030.73 1030.57 1030.41 1030.33 1030.21 1030.05
1032.13 1032.25 1032.21 1032.09 1032.17 1032.41 1032.53 1032.69 1032.85 1032.97 1033.05 1033.17 1033.21 1033.25 1033.21 1033.17 1033.17 1033.13 1033.05 1033.01 1032.93 1032.81 1032.73 1032.65 1032.53 1032.45 1032.29 1032.17 1032.01 1031.89 1031.73 1031.57 1031.45 1031.33 1031.21 1031.05 1030.85 1030.69 1030.53 1030.37 1030.21 1030.01
1031.89 1032.01 1032.01 1032.25 1032.37 1032.61 1032.77 1032.97 1033.13 1033.25 1033.29 1033.37 1033.37 1033.33 1033.33 1033.25 1033.25 1033.21 1033.13 1033.05 1033.01 1032.93 1032.85 1032.81 1032.69 1032.57 1032.45 1032.29 1032.17 1032.01 1031.89 1031.73 1031.57 1031.49 1031.33 1031.21 1031.09 1030.89 1030.69 1030.53 1030.37 1030.17
1031.73 1031.97 1032.13 1032.33 1032.53 1032.77 1033.01 1033.17 1033.33 1033.37 1033.41 1033.49 1033.45 1033.41 1033.41 1033.41 1033.37 1033.29 1033.25 1033.17 1033.13 1033.09 1033.01 1032.97 1032.85 1032.69 1032.57 1032.41 1032.25 1032.13 1032.01 1031.89 1031.73 1031.57 1031.41 1031.29 1031.17 1031.01 1030.89 1030.77 1030.61 1030.49
1031.81 1032.05 1032.17 1032.37 1032.65 1032.93 1033.13 1033.29 1033.41 1033.49 1033.57 1033.57 1033.65 1033.61 1033.57 1033.53 1033.53 1033.49 1033.41 1033.41 1033.25 1033.25 1033.17 1033.09 1032.97 1032.77 1032.65 1032.49 1032.33 1032.17 1032.05 1031.89 1031.73 1031.53 1031.41 1031.29 1031.13 1031.01 1030.89 1030.77 1030.61 1030.41
1031.77 1031.97 1032.21 1032.49 1032.73 1032.97 1033.21 1033.37 1033.53 1033.73 1033.77 1033.81 1033.81 1033.77 1033.77 1033.69 1033.69 1033.69 1033.57 1033.53 1033.41 1033.41 1033.29 1033.21 1033.05 1032.89 1032.73 1032.57 1032.41 1032.21 1032.01 1031.81 1031.61 1031.49 1031.37 1031.21 1031.09 1030.97 1030.81 1030.65 1030.49 1030.33
1031.77 1032.09 1032.33 1032.57 1032.81 1033.09 1033.33 1033.53 1033.73 1033.81 1033.85 1033.85 1033.89 1033.85 1033.85 1033.85 1033.81 1033.77 1033.65 1033.65 1033.57 1033.53 1033.41 1033.29 1033.13 1032.97 1032.77 1032.61 1032.41 1032.13 1031.89 1031.73 1031.57 1031.45 1031.29 1031.13 1030.97 1030.81 1030.69 1030.57 1030.37 1030.21
1031.81 1032.17 1032.45 1032.69 1032.97 1033.29 1033.49 1033.65 1033.73 1033.85 1033.89 1033.93 1033.97 1033.97 1033.93 1033.93 1033.89 1033.77 1033.77 1033.69 1033.61 1033.53 1033.45 1033.29 1033.17 1032.97 1032.85 1032.61 1032.21 1031.93 1031.77 1031.65 1031.49 1031.37 1031.21 1031.01 1030.81 1030.69 1030.49 1030.37 1030.17 1030.01
1031.85 1032.21 1032.53 1032.85 1033.17 1033.41 1033.61 1033.69 1033.81 1033.93 1034.01 1034.05 1034.09 1034.09 1034.05 1033.97 1033.97 1033.85 1033.77 1033.69 1033.65 1033.53 1033.41 1033.29 1033.13 1033.01 1032.85 1032.45 1032.09 1031.85 1031.61 1031.49 1031.33 1031.17 1031.01 1030.85 1030.69 1030.49 1030.29 1030.17 1030.01 1029.89
1031.89 1032.29 1032.69 1032.97 1033.33 1033.53 1033.73 1033.81 1033.93 1034.09 1034.17 1034.21 1034.21 1034.17 1034.09 1034.05 1033.93 1033.85 1033.77 1033.65 1033.61 1033.49 1033.41 1033.29 1033.13 1033.01 1032.65 1032.25 1031.93 1031.69 1031.49 1031.29 1031.17 1030.97 1030.85 1030.69 1030.53 1030.33 1030.17 1029.97 1029.89 1029.77
1031.89 1032.37 1032.65 1033.05 1033.45 1033.65 1033.81 1034.01 1034.09 1034.13 1034.17 1034.21 1034.21 1034.13 1034.09 1034.01 1033.93 1033.85 1033.77 1033.65 1033.57 1033.49 1033.41 1033.29 1033.13 1032.89 1032.53 1032.17 1031.81 1031.49 1031.25 1031.09 1030.97 1030.81 1030.61 1030.49 1030.29 1030.25 1030.17 1030.13 1030.01 1029.85
1031.93 1032.25 1032.61 1033.13 1033.53 1033.73 1033.85 1033.97 1034.01 1034.01 1034.05 1034.09 1034.09 1034.05 1034.01 1033.93 1033.85 1033.85 1033.77 1033.65 1033.57 1033.53 1033.45 1033.29 1033.13 1032.89 1032.49 1032.01 1031.61 1031.33 1031.09 1030.89 1030.73 1030.61 1030.45 1030.33 1030.41 1030.45 1030.37 1030.21 1029.97 1029.69
1031.93 1032.25 1032.57 1033.17 1033.57 1033.65 1033.65 1033.69 1033.73 1033.73 1033.93 1033.97 1034.01 1033.93 1033.89 1033.93 1033.85 1033.81 1033.73 1033.65 1033.61 1033.57 1033.45 1033.29 1033.09 1032.85 1032.29 1031.81 1031.49 1031.17 1030.89 1030.61 1030.49 1030.41 1030.41 1030.49 1030.49 1030.37 1030.21 1030.01 1029.81 1029.57
1031.97 1032.17 1032.49 1033.01 1033.25 1033.29 1033.33 1033.37 1033.53 1033.73 1033.81 1033.81 1033.89 1033.81 1033.81 1033.77 1033.77 1033.77 1033.73 1033.73 1033.65 1033.57 1033.49 1033.25 1033.01 1032.53 1032.05 1031.69 1031.33 1030.97 1030.65 1030.41 1030.45 1030.49 1030.41 1030.29 1030.17 1030.09 1029.97 1029.77 1029.57 1029.29
1031.73 1031.89 1032.21 1032.57 1032.81 1032.97 1032.89 1032.97 1033.41 1033.49 1033.61 1033.73 1033.81 1033.77 1033.73 1033.73 1033.73 1033.73 1033.69 1033.65 1033.61 1033.53 1033.41 1033.13 1032.77 1032.41 1031.97 1031.53 1031.09 1030.77 1030.41 1030.41 1030.45 1030.29 1030.09 1029.93 1029.85 1029.73 1029.53 1029.29 1029.09 1028.85
1031.41 1031.45 1031.73 1032.17 1032.49 1032.45 1032.49 1032.81 1033.13 1033.41 1033.57 1033.65 1033.69 1033.69 1033.65 1033.65 1033.73 1033.69 1033.69 1033.65 1033.53 1033.45 1033.25 1032.97 1032.73 1032.41 1031.85 1031.33 1030.97 1030.61 1030.37 1030.33 1030.13 1029.97 1029.81 1029.65 1029.49 1029.29 1029.09 1028.89 1028.65 1028.29
1031.21 1031.29 1031.37 1031.85 1032.21 1031.93 1032.25 1032.81 1033.21 1033.37 1033.45 1033.53 1033.49 1033.45 1033.49 1033.57 1033.61 1033.69 1033.65 1033.57 1033.45 1033.25 1033.13 1032.81 1032.45 1032.17 1031.65 1031.21 1030.85 1030.49 1030.21 1030.01 1029.85 1029.69 1029.41 1029.17 1028.85 1028.77 1028.53 1028.17 1027.85 1027.57
1031.13 1031.33 1031.41 1031.65 1031.73 1032.01 1032.41 1032.57 1032.85 1033.09 1033.29 1033.41 1033.41 1033.41 1033.37 1033.49 1033.53 1033.57 1033.57 1033.41 1033.25 1033.05 1032.77 1032.45 1032.25 1032.09 1031.69 1031.17 1030.65 1030.25 1029.93 1029.69 1029.45 1029.21 1028.89 1028.61 1028.37 1028.01 1027.77 1027.53 1027.17 1026.97
1031.09 1031.21 1031.45 1031.53 1031.57 1032.05 1032.41 1032.57 1032.89 1033.09 1033.13 1033.17 1033.25 1033.29 1033.33 1033.41 1033.49 1033.45 1033.37 1033.21 1033.01 1032.81 1032.57 1032.37 1032.17 1031.89 1031.65 1030.93 1030.45 1029.97 1029.61 1029.37 1029.09 1028.89 1028.49 1028.09 1027.77 1027.49 1027.13 1026.81 1026.65 1026.37
Wind_Speed
7 6 7 6 6 5 5 6 5 6 6 5 6 5 6 5 5 5 5 5 6 6 6 6 6 6 6 6 5 5 5 5 5 4 5 4 5 5 6 7 6 5
7 6 6 5 5 4 4 5 5 6 6 5 5 5 4 4 4 4 4 5 5 5 5 4 5 5 5 6 5 5 5 5 6 4 5 6 5 5 6 7 6 6
7 7 6 7 6 6 6 5 5 5 6 5 4 4 4 3 4 4 4 4 4 4 5 5 5 5 5 5 5 5 5 6 6 5 5 6 6 6 6 6 5 7
5 5 5 6 6 6 5 6 5 5 4 5 5 4 3 3 4 5 5 5 6 6 6 6 7 6 6 6 6 5 5 5 5 5 5 4 5 5 6 6 6 6
6 5 5 6 5 5 4 6 6 5 5 5 4 4 5 5 6 6 6 7 6 7 7 7 7 7 7 6 7 6 6 5 5 6 6 6 5 6 6 6 7 8
5 5 5 6 5 5 5 6 5 5 5 6 6 5 6 6 6 6 6 6 6 6 6 6 6 6 6 6 6 5 6 6 7 8 8 8 7 6 5 6 8 8
6 6 6 4 5 5 6 6 5 5 6 5 5 6 5 6 6 6 6 5 5 6 6 6 6 7 6 6 6 6 6 6 7 8 8 8 8 8 7 8 8 9
6 4 4 4 6 6 7 6 6 6 5 5 6 5 4 4 5 4 4 4 4 5 5 5 6 6 7 6 6 7 7 5 6 8 8 8 8 9 9 8 9 10
5 4 4 7 7 6 7 6 5 5 4 4 4 3 3 4 4 4 4 4 4 5 5 5 6 6 6 6 6 7 7 7 7 8 9 9 10 10 10 10 10 10
5 5 7 6 6 5 6 5 4 4 4 4 3 3 3 4 4 4 4 4 4 4 5 5 5 6 5 6 6 7 7 8 8 8 8 8 9 9 10 10 11 11
6 5 6 6 6 5 6 5 4 3 3 4 3 3 3 3 3 3 3 4 4 5 5 5 5 6 6 6 6 6 7 7 7 7 8 8 8 9 9 10 10 10
6 5 6 6 6 5 5 4 4 3 3 3 3 2 3 3 3 3 3 4 4 4 4 5 5 5 6 6 6 6 6 7 7 7 7 8 8 9 9 9 9 10
5 5 5 5 5 5 4 4 3 3 2 2 2 2 3 3 3 3 3 3 4 4 4 5 5 5 5 6 6 7 7 7 8 8 9 8 8 9 10 10 10 10
5 5 5 5 5 5 4 3 3 2 2 2 2 3 3 3 3 3 3 3 3 3 4 4 5 5 5 5 6 7 8 8 8 9 9 9 9 9 10 10 10 10
5 5 5 5 5 4 3 3 2 2 2 2 2 2 2 3 3 3 3 3 3 3 4 4 4 4 4 5 7 8 8 9 9 9 10 10 10 10 10 10 11 10
6 5 5 4 4 4 3 3 2 2 2 2 2 2 2 2 2 2 3 3 4 3 4 3 4 3 6 12 11 9 9 8 9 9 9 10 10 11 11 11 11 10
5 5 4 4 4 3 3 2 2 1 1 1 1 1 2 2 2 2 3 3 3 4 4 4 4 4 11 12 12 13 10 9 9 9 9 10 10 11 11 11 11 11
5 5 5 4 4 3 3 3 2 2 1 1 0 1 1 1 2 2 3 3 3 4 4 5 5 8 12 13 13 13 12 9 8 8 8 9 10 10 10 11 12 11
6 5 4 4 3 4 3 3 3 2 1 1 1 1 1 2 2 3 3 3 4 4 5 6 6 9 13 14 13 14 14 12 8 8 8 8 9 10 11 11 10 11
7 6 5 5 4 4 3 3 3 2 1 0 0 1 1 2 2 3 3 4 4 5 5 6 7 9 14 14 14 14 14 13 8 8 8 9 10 10 10 11 11 12
6 6 6 5 4 4 3 3 2 1 0 0 1 2 2 2 3 3 4 4 4 5 5 6 6 12 13 15 15 15 15 13 8 8 8 8 9 10 10 11 12 12
7 6 5 5 4 4 3 2 1 1 0 1 1 1 1 2 2 2 4 5 5 5 6 7 7 13 14 15 16 15 16 9 7 8 8 9 9 10 11 11 11 12
6 6 6 5 4 4 3 2 2 1 1 1 1 2 2 2 2 3 3 5 5 5 6 7 7 10 14 16 16 17 13 8 8 8 8 9 11 11 11 11 12 13
5 6 6 5 5 5 4 3 2 1 1 1 2 2 3 2 2 3 3 4 5 6 5 7 6 10 15 16 16 16 14 9 8 8 10 10 10 12 12 13 14 20
6 5 6 6 5 5 5 3 2 2 1 1 2 2 3 2 2 3 3 3 4 6 9 9 7 9 15 16 17 16 13 9 9 9 9 9 8 10 11 11 11 12
6 6 6 6 6 5 4 3 2 1 1 1 1 1 2 2 3 3 5 4 4 5 5 6 7 6 9 17 16 16 16 10 9 9 10 10 10 9 9 10 9 10
Wind_Direction
86 83 89 86 84 86 91 90 78 81 73 69 65 56 50 35 22 24 23 24 26 25 20 20 16 20 18 16 18 15 22 19 9 10 3 2 359 359 349 347 344 341
91 91 94 95 95 89 84 85 89 84 83 74 71 67 63 52 31 40 35 37 34 32 22 20 19 18 15 14 8 8 8 11 5 358 358 354 351 348 340 337 332 327
92 93 100 104 107 102 95 88 86 83 82 81 80 66 61 60 46 44 43 46 39 40 34 27 26 25 20 15 9 8 10 0 359 353 350 345 342 340 333 328 328 326
104 110 110 103 98 95 89 87 77 76 81 77 63 61 61 52 48 40 37 32 30 27 24 21 20 15 16 10 9 10 5 3 350 344 343 342 339 333 329 325 320 318
122 110 100 94 90 91 90 88 84 80 75 76 73 52 48 40 36 32 28 23 23 18 16 15 13 10 6 5 3 0 358 353 350 350 343 339 338 338 329 327 322 319
100 101 92 93 91 99 89 82 81 75 72 64 54 48 44 39 37 33 23 21 18 16 12 12 9 6 3 0 355 0 352 351 347 346 343 339 336 337 329 327 321 318
107 95 102 104 103 93 87 76 70 62 58 57 49 46 37 35 36 29 22 19 15 13 12 6 5 1 360 355 355 352 351 344 343 344 340 335 333 332 335 330 327 320
106 114 122 116 94 76 71 67 57 54 51 50 53 41 43 39 38 28 23 18 16 14 9 5 3 360 354 353 351 349 347 349 343 343 337 333 336 331 335 334 328 323
132 127 111 84 80 76 75 70 66 61 55 60 54 49 39 50 32 30 22 20 18 14 9 5 3 357 352 352 349 348 343 342 343 341 339 336 335 331 331 329 326 324
118 98 88 91 88 86 86 78 75 72 63 59 53 47 49 36 35 28 26 21 18 17 10 5 359 351 349 350 346 345 342 337 338 337 332 330 326 324 326 327 324 322
102 101 103 100 97 95 93 88 80 73 61 55 40 46 39 39 26 28 27 22 19 14 5 4 355 344 345 344 342 342 337 332 328 326 325 322 320 318 319 319 316 313
119 116 110 107 106 103 97 90 79 64 61 47 48 37 41 35 34 21 24 17 15 12 1 356 345 341 339 337 336 336 330 325 322 319 318 319 315 315 314 313 310 308
130 126 120 115 112 106 101 92 81 72 64 64 36 49 44 38 23 30 14 20 8 6 358 351 339 335 334 334 333 330 325 323 324 324 323 321 319 317 317 315 311 310
131 128 118 115 112 107 101 98 92 80 67 56 49 37 41 31 15 13 10 9 5 357 349 339 330 328 329 325 321 324 327 325 324 322 320 317 315 313 314 310 309 307
132 118 114 114 113 109 107 103 89 74 61 52 45 37 28 21 7 360 2 1 357 351 342 332 324 323 327 319 324 327 325 320 319 316 314 313 312 310 309 306 305 304
123 118 120 121 119 120 114 108 90 77 69 58 38 36 14 6 0 355 2 351 345 338 337 323 313 313 305 315 319 318 318 314 311 309 310 309 308 306 305 305 305 303
124 127 126 126 127 122 119 124 119 137 105 94 38 21 357 359 345 352 352 339 340 334 327 321 304 301 309 316 316 315 313 310 307 306 305 304 302 302 302 306 305 304
133 134 132 132 136 147 146 148 157 154 136 117 24 2 342 334 339 351 330 336 327 329 319 310 303 304 313 313 312 312 312 309 306 302 301 299 302 304 304 305 303 301
139 142 141 146 162 163 156 157 149 148 136 144 14 317 302 330 345 335 327 329 325 323 315 307 296 305 309 310 310 312 311 310 303 299 297 301 304 302 299 298 298 299
143 146 152 162 166 159 151 142 132 137 129 229 325 311 328 325 326 325 326 324 322 316 307 301 297 301 308 310 313 311 310 309 301 302 300 298 296 296 297 297 296 297
158 155 159 162 159 148 137 133 132 144 202 235 324 320 326 322 323 319 311 311 308 308 303 297 291 306 311 312 312 312 311 315 309 302 293 289 293 295 295 294 293 291
161 160 159 155 151 140 125 136 149 177 249 292 288 288 275 288 296 300 303 307 305 302 300 296 296 312 313 313 313 314 316 316 304 295 290 289 291 294 295 294 291 290
163 155 156 154 152 144 146 172 171 207 238 214 261 286 294 295 288 292 296 294 296 293 295 294 294 308 312 313 315 315 317 304 300 296 290 291 293 294 296 292 288 282
160 154 157 159 157 161 165 176 174 209 218 211 266 287 291 278 292 292 277 276 283 287 287 294 293 306 311 313 314 312 311 306 299 293 290 285 278 284 284 281 268 264
154 158 157 162 167 166 164 176 196 204 210 218 233 245 269 284 292 288 279 274 266 277 296 300 296 301 307 308 310 310 310 302 297 289 280 281 272 275 277 270 264 260
159 161 164 166 167 160 165 177 180 179 215 239 264 273 279 291 282 275 280 281 279 284 287 292 293 288 295 301 306 307 308 304 298 296 291 281 274 273 285 279 266 261